KC1DMA Weather Reports


time (UTC)temp
F
wind
direction
speed
knots
gust
knots
rain 1hr
in
rain 24hr
in
rain mn
in
humidity
%
barometer
mb
20260901113301 68 119 2.6 2.6 0.00 0.00 0.00 99 1018.0
20260901112755 68 180 0.0 2.6 0.00 0.00 0.00 99 1018.3
20260901112250 68 113 0.0 2.6 0.00 0.00 0.00 99 1017.9
20260901111745 68 120 0.9 1.7 0.00 0.00 0.00 99 1018.2
20260901111243 68 113 0.0 1.7 0.00 0.00 0.00 99 1018.1
20260901110737 68 94 0.9 1.7 0.00 0.00 0.00 99 1018.2
20260901110233 68 135 0.0 1.7 0.00 0.00 0.00 99 1018.2
20260901105730 68 124 1.7 1.7 0.00 0.00 0.00 99 1018.2
20260901105229 68 140 0.0 2.6 0.00 0.00 0.00 99 1018.2
20260901104725 68 118 0.9 2.6 0.00 0.00 0.00 99 1018.1
20260901104220 67 138 1.7 2.6 0.00 0.00 0.00 99 1017.9
20260901103719 67 140 1.7 2.6 0.00 0.00 0.00 98 1018.1
20260901103215 67 68 0.0 1.7 0.00 0.00 0.00 98 1018.3
20260901102715 67 126 1.7 2.6 0.00 0.00 0.00 98 1018.0
20260901102214 67 120 1.7 2.6 0.00 0.00 0.00 98 1018.1
20260901101710 67 63 0.0 3.5 0.00 0.00 0.00 98 1018.1
20260901101205 67 135 2.6 3.5 0.00 0.00 0.00 98 1017.9
20260901100659 67 120 1.7 2.6 0.00 0.00 0.00 98 1018.1
20260901100154 67 65 1.7 2.6 0.00 0.00 0.00 98 1018.2
20260901095652 67 114 0.0 1.7 0.00 0.00 0.00 98 1018.2
20260901095150 67 166 0.0 2.6 0.00 0.00 0.00 98 1018.1
20260901094644 67 150 0.0 3.5 0.00 0.00 0.00 98 1018.1
20260901094139 67 196 0.0 1.7 0.00 0.00 0.00 98 1018.2
20260901093638 67 152 2.6 2.6 0.00 0.00 0.00 98 1018.0
20260901093138 67 82 0.0 2.6 0.00 0.00 0.00 98 1018.1
20260901092634 67 138 2.6 2.6 0.00 0.00 0.00 98 1018.2
20260901092130 67 153 0.9 1.7 0.00 0.00 0.00 98 1018.1
20260901091625 67 124 1.7 3.5 0.00 0.00 0.00 98 1018.3
20260901091121 67 109 1.7 1.7 0.00 0.00 0.00 98 1018.4
20260901090620 67 148 1.7 2.6 0.00 0.00 0.00 98 1018.4
20260901090116 67 56 0.0 2.6 0.00 0.00 0.00 98 1018.3
20260901085612 67 105 0.9 1.7 0.00 0.00 0.00 98 1018.5
20260901085107 67 143 0.0 1.7 0.00 0.00 0.00 98 1018.7
20260901084603 67 174 0.9 2.6 0.00 0.00 0.00 98 1018.6
20260901084100 67 144 2.6 3.5 0.00 0.00 0.00 98 1018.7
20260901083553 67 120 1.7 1.7 0.00 0.00 0.00 98 1018.6
20260901083051 67 101 1.7 1.7 0.00 0.00 0.00 97 1018.5
20260901082546 67 177 0.9 1.7 0.00 0.00 0.00 97 1018.6
20260901082042 67 136 1.7 2.6 0.00 0.00 0.00 97 1018.6
20260901081537 67 127 0.9 1.7 0.00 0.00 0.00 97 1018.7
20260901081032 67 337 1.7 1.7 0.00 0.00 0.00 97 1018.8
20260901080531 67 122 0.9 1.7 0.00 0.00 0.00 97 1018.9
20260901080025 67 129 0.0 1.7 0.00 0.00 0.00 97 1018.9
20260901075521 67 164 0.9 1.7 0.00 0.00 0.00 97 1018.8
20260901075020 67 144 1.7 3.5 0.00 0.00 0.00 97 1018.9
20260901074520 67 126 1.7 1.7 0.00 0.00 0.00 97 1018.9
20260901074015 67 131 1.7 1.7 0.00 0.00 0.00 97 1019.0
20260901073512 67 113 0.0 1.7 0.00 0.00 0.00 97 1018.9
20260901073007 67 98 1.7 2.6 0.00 0.00 0.00 96 1018.9
20260901072502 67 127 0.9 1.7 0.00 0.00 0.00 96 1018.9
20260901071956 67 112 0.0 1.7 0.00 0.00 0.00 96 1019.0
20260901071455 67 84 1.7 1.7 0.00 0.00 0.00 95 1019.3
20260901070955 67 89 0.0 0.9 0.00 0.00 0.00 95 1019.1
20260901070445 67 116 0.9 0.9 0.00 0.00 0.00 95 1019.1
20260901065944 67 134 1.7 3.5 0.00 0.00 0.00 95 1019.0
20260901065440 67 128 2.6 3.5 0.00 0.00 0.00 95 1019.0
20260901064934 67 140 1.7 2.6 0.00 0.00 0.00 95 1019.0
20260901064431 67 113 1.7 2.6 0.00 0.00 0.00 95 1019.3
20260901063928 67 88 1.7 3.5 0.00 0.00 0.00 95 1019.0
20260901063424 67 136 2.6 2.6 0.00 0.00 0.00 94 1019.3
20260901062920 67 138 1.7 2.6 0.00 0.00 0.00 94 1019.3
20260901062415 67 168 2.6 2.6 0.00 0.00 0.00 94 1019.3
20260901061910 67 126 0.9 3.5 0.00 0.00 0.00 94 1019.1
20260901061407 68 118 1.7 2.6 0.00 0.00 0.00 94 1019.4
20260901060901 68 148 1.7 1.7 0.00 0.00 0.00 94 1019.5
20260901060357 68 117 0.9 1.7 0.00 0.00 0.00 94 1019.7
20260901055856 68 122 0.9 1.7 0.00 0.00 0.00 94 1019.4
20260901055353 68 159 0.9 1.7 0.00 0.00 0.00 94 1019.6
20260901054849 68 123 1.7 1.7 0.00 0.00 0.00 93 1019.6
20260901054346 68 124 0.9 1.7 0.00 0.00 0.00 93 1019.6
20260901053842 68 119 0.9 1.7 0.00 0.00 0.00 93 1019.7
20260901053337 68 89 0.0 1.7 0.00 0.00 0.00 93 1019.7
20260901052832 68 124 0.9 1.7 0.00 0.00 0.00 92 1019.7
20260901052328 68 132 0.9 1.7 0.00 0.00 0.00 92 1019.7
20260901051826 68 147 0.0 3.5 0.00 0.00 0.00 91 1019.7
20260901051322 68 117 0.0 1.7 0.00 0.00 0.00 91 1019.6
20260901050817 68 130 0.0 1.7 0.00 0.00 0.00 91 1019.8
20260901050312 68 89 0.0 2.6 0.00 0.00 0.00 91 1019.9
20260901045802 68 149 2.6 2.6 0.00 0.00 0.00 91 1020.0
20260901045302 68 154 0.0 2.6 0.00 0.00 0.00 91 1019.9
20260901044757 68 136 0.9 1.7 0.00 0.00 0.00 91 1020.0
20260901044253 68 126 0.0 1.7 0.00 0.00 0.00 91 1020.0
20260901043749 68 130 1.7 1.7 0.00 0.00 0.00 91 1020.1
20260901043244 68 139 1.7 1.7 0.00 0.00 0.00 90 1020.0
20260901042744 68 129 0.9 2.6 0.00 0.00 0.00 90 1020.1
20260901042238 68 164 0.0 2.6 0.00 0.00 0.00 90 1020.0
20260901041734 68 130 0.9 1.7 0.00 0.00 0.00 90 1020.0
20260901041234 68 122 0.9 1.7 0.00 0.00 0.00 90 1019.9
20260901040729 68 133 1.7 2.6 0.00 0.00 0.00 90 1020.0
20260901040228 68 120 1.7 2.6 0.00 0.00 0.00 90 1020.1
20260901035726 68 148 0.9 1.7 0.00 0.00 0.00 90 1020.0
20260901035220 68 126 0.0 0.9 0.00 0.00 0.00 90 1020.2
20260901034719 68 129 0.9 1.7 0.00 0.00 0.00 90 1020.1
20260901034214 68 113 0.0 1.7 0.00 0.00 0.00 90 1020.1
20260901033714 68 135 1.7 2.6 0.00 0.00 0.00 89 1020.1
20260901033213 68 118 0.0 1.7 0.00 0.00 0.00 89 1020.3
20260901032712 68 125 0.0 1.7 0.00 0.00 0.00 89 1020.3
20260901032207 68 99 0.0 1.7 0.00 0.00 0.00 89 1020.3
20260901031657 68 113 0.0 1.7 0.00 0.00 0.00 89 1020.2
20260901031153 68 141 0.0 1.7 0.00 0.00 0.00 89 1020.3
20260901030652 68 138 0.0 1.7 0.00 0.00 0.00 89 1020.5
20260901030141 68 106 1.7 1.7 0.00 0.00 0.00 89 1020.6
20260901025635 68 88 1.7 2.6 0.00 0.00 0.00 88 1020.3
20260901025130 68 147 2.6 2.6 0.00 0.00 0.00 88 1020.3
20260901024624 68 156 1.7 3.5 0.00 0.00 0.00 88 1020.5
20260901024123 69 93 1.7 3.5 0.00 0.00 0.00 88 1020.5
20260901023622 68 115 0.9 2.6 0.00 0.00 0.00 87 1020.2
20260901023117 69 140 0.9 1.7 0.00 0.00 0.00 87 1020.3
20260901022612 68 128 0.0 3.5 0.00 0.00 0.00 87 1020.3
20260901022108 68 125 0.0 2.6 0.00 0.00 0.00 87 1020.3
20260901021603 68 133 0.9 5.2 0.00 0.00 0.00 87 1020.3
20260901021058 68 146 0.9 1.7 0.00 0.00 0.00 87 1020.3
20260901020554 68 126 1.7 2.6 0.00 0.00 0.00 87 1020.2
20260901020050 68 150 0.9 2.6 0.00 0.00 0.00 87 1020.3
20260901015545 68 154 1.7 1.7 0.00 0.00 0.00 86 1020.6
20260901015045 68 117 0.0 2.6 0.00 0.00 0.00 86 1020.6
20260901014540 68 162 0.9 3.5 0.00 0.00 0.00 86 1020.3
20260901014036 69 100 0.9 2.6 0.00 0.00 0.00 86 1020.5
20260901013532 69 146 1.7 5.2 0.00 0.00 0.00 85 1020.7
20260901013027 69 128 1.7 1.7 0.00 0.00 0.00 85 1020.9
20260901012527 69 117 1.7 2.6 0.00 0.00 0.00 85 1020.8
20260901012022 69 135 0.9 1.7 0.00 0.00 0.00 85 1020.7
20260901011519 69 135 0.0 1.7 0.00 0.00 0.00 85 1020.7
20260901011016 69 135 0.0 4.3 0.00 0.00 0.00 85 1020.8
20260901010511 68 192 0.9 1.7 0.00 0.00 0.00 84 1020.7
20260901010011 69 134 0.0 2.6 0.00 0.00 0.00 84 1020.7
20260901005505 69 120 3.5 3.5 0.00 0.00 0.00 83 1020.7
20260901005000 69 89 0.0 2.6 0.00 0.00 0.00 83 1020.6
20260901004500 69 195 0.0 3.5 0.00 0.00 0.00 83 1020.7
20260901003955 69 94 0.9 1.7 0.00 0.00 0.00 82 1020.7
20260901003450 69 128 2.6 2.6 0.00 0.00 0.00 82 1020.3
20260901002948 69 124 1.7 1.7 0.00 0.00 0.00 81 1020.5
20260901002443 69 149 0.9 2.6 0.00 0.00 0.00 81 1020.5
20260901001937 69 100 0.0 0.9 0.00 0.00 0.00 80 1020.3
20260901001433 69 87 1.7 2.6 0.00 0.00 0.00 80 1020.6
20260901000928 69 129 0.0 2.6 0.00 0.00 0.00 79 1020.5
20260901000423 69 198 0.9 1.7 0.00 0.00 0.00 79 1020.3
20260831235921 69 150 0.0 1.7 0.00 0.00 0.00 78 1020.5
20260831235417 69 130 0.0 1.7 0.00 0.00 0.00 78 1020.6
20260831234912 69 124 0.0 1.7 0.00 0.00 0.00 78 1020.6
20260831234411 69 119 0.9 4.3 0.00 0.00 0.00 77 1020.6
20260831233907 69 135 0.0 2.6 0.00 0.00 0.00 76 1020.7
20260831233402 69 144 1.7 3.5 0.00 0.00 0.00 76 1020.7
20260831232857 69 129 0.0 0.9 0.00 0.00 0.00 76 1020.9
20260831232353 69 120 0.0 1.7 0.00 0.00 0.00 76 1020.9
20260831231849 70 120 0.9 0.9 0.00 0.00 0.00 76 1020.7
20260831231345 70 143 0.0 1.7 0.00 0.00 0.00 76 1020.8
20260831230840 70 136 1.7 3.5 0.00 0.00 0.00 77 1020.9
20260831230336 70 135 0.0 0.9 0.00 0.00 0.00 78 1020.9
20260831225835 70 103 0.0 1.7 0.00 0.00 0.00 79 1020.9
20260831225331 70 164 0.0 1.7 0.00 0.00 0.00 78 1020.8
20260831224826 70 255 0.9 0.9 0.00 0.00 0.00 79 1021.2
20260831224321 71 188 0.0 1.7 0.00 0.00 0.00 80 1021.0
20260831223815 71 160 0.0 3.5 0.00 0.00 0.00 80 1021.0
20260831223312 71 118 1.7 3.5 0.00 0.00 0.00 80 1020.8
20260831222808 71 95 1.7 2.6 0.00 0.00 0.00 80 1020.8
20260831222306 71 151 2.6 3.5 0.00 0.00 0.00 80 1020.9
20260831221758 71 189 0.9 1.7 0.00 0.00 0.00 80 1020.7
20260831221255 72 147 0.0 1.7 0.00 0.00 0.00 79 1020.9
20260831220754 72 178 0.0 1.7 0.00 0.00 0.00 78 1021.0
20260831220249 72 137 0.0 3.5 0.00 0.00 0.00 78 1021.1
20260831215744 72 132 0.9 2.6 0.00 0.00 0.00 78 1020.9
20260831215241 72 175 0.0 4.3 0.00 0.00 0.00 77 1020.8
20260831214737 72 100 1.7 4.3 0.00 0.00 0.00 76 1020.8
20260831214234 73 126 0.0 3.5 0.00 0.00 0.00 76 1020.9
20260831213729 73 172 1.7 3.5 0.00 0.00 0.00 75 1020.7
20260831213226 73 127 2.6 4.3 0.00 0.00 0.00 74 1020.8
20260831212720 74 38 0.9 1.7 0.00 0.00 0.00 74 1021.0
20260831212217 74 122 1.7 3.5 0.00 0.00 0.00 72 1020.9
20260831211715 74 331 0.9 5.2 0.00 0.00 0.00 72 1020.9
20260831211211 75 256 1.7 2.6 0.00 0.00 0.00 70 1020.7
20260831210711 74 83 0.9 4.3 0.00 0.00 0.00 68 1020.9
20260831210207 75 205 0.9 2.6 0.00 0.00 0.00 67 1020.8
20260831205707 75 108 1.7 3.5 0.00 0.00 0.00 65 1020.5
20260831205203 75 182 1.7 5.2 0.00 0.00 0.00 64 1020.8
20260831204702 76 161 2.6 3.5 0.00 0.00 0.00 60 1020.7
20260831204201 77 98 0.9 1.7 0.00 0.00 0.00 60 1020.8
20260831203655 77 176 0.9 5.2 0.00 0.00 0.00 59 1020.8
20260831203149 77 216 0.9 6.1 0.00 0.00 0.00 60 1020.8
20260831202648 76 123 1.7 5.2 0.00 0.00 0.00 59 1020.8
20260831202143 77 213 2.6 2.6 0.00 0.00 0.00 58 1020.7
20260831201637 78 286 0.0 2.6 0.00 0.00 0.00 57 1020.8
20260831201131 76 234 0.9 3.5 0.00 0.00 0.00 61 1020.9
20260831200628 76 148 5.2 5.2 0.00 0.00 0.00 58 1020.7
20260831200127 76 302 1.7 4.3 0.00 0.00 0.00 60 1020.8
20260831195623 77 211 0.0 3.5 0.00 0.00 0.00 58 1020.9
20260831195118 77 189 0.9 5.2 0.00 0.00 0.00 57 1021.0
20260831194613 77 273 1.7 3.5 0.00 0.00 0.00 57 1021.0
20260831194108 77 157 1.7 6.1 0.00 0.00 0.00 57 1020.9
20260831193603 78 159 4.3 4.3 0.00 0.00 0.00 59 1021.2
20260831193103 77 214 1.7 4.3 0.00 0.00 0.00 62 1021.2
20260831192558 78 186 3.5 5.2 0.00 0.00 0.00 60 1021.1
20260831192053 78 149 3.5 4.3 0.00 0.00 0.00 60 1021.2
20260831191549 78 119 1.7 4.3 0.00 0.00 0.00 61 1021.2
20260831191045 78 182 1.7 4.3 0.00 0.00 0.00 64 1021.2
20260831190540 76 192 1.7 5.2 0.00 0.00 0.00 68 1021.4
20260831190038 76 127 1.7 2.6 0.00 0.00 0.00 68 1021.4
20260831185535 77 106 2.6 3.5 0.00 0.00 0.00 67 1021.4
20260831185030 77 238 1.7 2.6 0.00 0.00 0.00 67 1021.4
20260831184524 77 170 3.5 4.3 0.00 0.00 0.00 63 1021.2
20260831184020 78 196 1.7 5.2 0.00 0.00 0.00 62 1021.3
20260831183519 78 144 2.6 2.6 0.00 0.00 0.00 60 1021.4
20260831183018 78 229 0.0 2.6 0.00 0.00 0.00 58 1021.5
20260831182513 79 309 2.6 2.6 0.00 0.00 0.00 58 1021.3
20260831182009 79 311 0.0 2.6 0.00 0.00 0.00 58 1021.4
20260831181503 79 269 0.0 1.7 0.00 0.00 0.00 61 1021.5
20260831180958 79 149 2.6 3.5 0.00 0.00 0.00 58 1021.4
20260831180453 78 306 0.0 2.6 0.00 0.00 0.00 59 1021.7
20260831175952 79 144 0.9 3.5 0.00 0.00 0.00 56 1021.8
20260831175449 79 172 1.7 5.2 0.00 0.00 0.00 57 1021.7
20260831174944 79 142 0.9 4.3 0.00 0.00 0.00 55 1021.8
20260831174440 79 209 0.0 2.6 0.00 0.00 0.00 56 1021.9
20260831173939 78 156 3.5 5.2 0.00 0.00 0.00 59 1021.8
20260831173437 77 180 0.0 3.5 0.00 0.00 0.00 61 1021.9
20260831172933 77 85 1.7 4.3 0.00 0.00 0.00 59 1021.7
20260831172430 77 247 0.9 1.7 0.00 0.00 0.00 59 1021.8
20260831171929 77 230 0.0 2.6 0.00 0.00 0.00 60 1021.8
20260831171425 79 64 0.9 2.6 0.00 0.00 0.00 57 1022.0
20260831170922 78 183 1.7 3.5 0.00 0.00 0.00 57 1022.0
20260831170418 79 230 1.7 2.6 0.00 0.00 0.00 56 1021.8
20260831165914 79 128 0.0 3.5 0.00 0.00 0.00 56 1022.2
20260831165410 79 195 2.6 2.6 0.00 0.00 0.00 53 1022.1
20260831164906 78 158 1.7 5.2 0.00 0.00 0.00 56 1022.2
20260831164402 77 180 3.5 4.3 0.00 0.00 0.00 57 1022.2
20260831163857 76 303 1.7 3.5 0.00 0.00 0.00 57 1022.2
20260831163353 77 311 1.7 3.5 0.00 0.00 0.00 59 1022.2
20260831162851 79 173 1.7 2.6 0.00 0.00 0.00 54 1022.1
20260831162347 77 198 0.9 2.6 0.00 0.00 0.00 55 1022.2
20260831161845 79 186 1.7 1.7 0.00 0.00 0.00 53 1022.3
20260831161342 78 142 1.7 3.5 0.00 0.00 0.00 55 1022.4
20260831160838 78 60 1.7 3.5 0.00 0.00 0.00 59 1022.5
20260831160338 77 211 0.0 3.5 0.00 0.00 0.00 61 1022.2
20260831155832 78 165 0.9 4.3 0.00 0.00 0.00 59 1022.5
20260831155326 78 119 0.0 1.7 0.00 0.00 0.00 62 1022.6
20260831154822 77 180 2.6 2.6 0.00 0.00 0.00 62 1022.5
20260831154319 75 104 2.6 2.6 0.00 0.00 0.00 66 1022.4
20260831153817 75 21 1.7 4.3 0.00 0.00 0.00 66 1022.5
20260831153313 76 142 1.7 3.5 0.00 0.00 0.00 66 1022.3
20260831152809 75 357 0.9 2.6 0.00 0.00 0.00 69 1022.4
20260831152306 76 174 3.5 5.2 0.00 0.00 0.00 65 1022.6
20260831151759 76 61 0.0 1.7 0.00 0.00 0.00 64 1022.5
20260831151258 76 147 0.9 5.2 0.00 0.00 0.00 66 1022.5
20260831150753 76 164 2.6 4.3 0.00 0.00 0.00 64 1022.5
20260831150249 76 248 0.0 3.5 0.00 0.00 0.00 63 1022.7
20260831145748 75 139 0.9 6.1 0.00 0.00 0.00 66 1022.7
20260831145244 75 221 1.7 1.7 0.00 0.00 0.00 67 1022.7
20260831144740 74 76 1.7 3.5 0.00 0.00 0.00 65 1022.9
20260831144239 73 53 4.3 5.2 0.00 0.00 0.00 68 1022.7
20260831143736 74 74 1.7 4.3 0.00 0.00 0.00 68 1022.6
20260831143226 73 164 2.6 3.5 0.00 0.00 0.00 68 1022.7
20260831142722 74 126 5.2 5.2 0.00 0.00 0.00 66 1022.6
20260831142217 74 34 2.6 4.3 0.00 0.00 0.00 68 1022.5
20260831141716 74 12 2.6 3.5 0.00 0.00 0.00 67 1022.5
20260831141211 73 168 0.9 3.5 0.00 0.00 0.00 72 1022.5
20260831140710 72 324 1.7 2.6 0.00 0.00 0.00 75 1022.6
20260831140205 72 129 0.0 4.3 0.00 0.00 0.00 73 1022.4
20260831135702 72 31 1.7 2.6 0.00 0.00 0.00 75 1022.7
20260831135158 72 67 2.6 7.0 0.00 0.00 0.00 76 1022.3
20260831134654 72 356 2.6 4.3 0.00 0.00 0.00 75 1022.2
20260831134150 73 122 1.7 3.5 0.00 0.00 0.00 76 1022.1
20260831133649 71 75 1.7 2.6 0.00 0.00 0.00 79 1022.3
20260831133143 70 32 1.7 4.3 0.00 0.00 0.00 80 1022.5
20260831132639 70 3 2.6 4.3 0.00 0.00 0.00 80 1022.5
20260831132138 70 346 1.7 5.2 0.00 0.00 0.00 80 1022.5
20260831131633 69 20 2.6 5.2 0.00 0.00 0.00 81 1022.4
20260831131130 70 40 2.6 3.5 0.00 0.00 0.00 81 1022.4
20260831130625 69 15 2.6 3.5 0.00 0.00 0.00 82 1022.5
20260831130121 69 43 1.7 2.6 0.00 0.00 0.00 83 1022.4
20260831125618 69 102 0.9 3.5 0.00 0.00 0.00 83 1022.3
20260831125115 68 5 1.7 3.5 0.00 0.00 0.00 83 1022.5
20260831124611 69 53 1.7 1.7 0.00 0.00 0.00 83 1022.5
20260831124106 68 5 2.6 3.5 0.00 0.00 0.00 83 1022.5
20260831123606 68 41 0.0 3.5 0.00 0.00 0.00 84 1022.4
20260831123100 68 8 2.6 2.6 0.00 0.00 0.00 85 1022.4
20260831122554 67 94 1.7 4.3 0.00 0.00 0.00 85 1022.3
20260831122045 68 53 0.9 3.5 0.00 0.00 0.00 85 1022.3
20260831121544 66 2 1.7 3.5 0.00 0.00 0.00 86 1022.2
20260831121041 66 28 3.5 3.5 0.00 0.00 0.00 86 1022.2
20260831120540 66 35 3.5 5.2 0.00 0.00 0.00 86 1022.4
20260831120036 66 26 1.7 3.5 0.00 0.00 0.00 87 1022.2
20260831115532 66 13 0.9 3.5 0.00 0.00 0.00 87 1022.3
20260831115027 66 317 0.0 1.7 0.00 0.00 0.00 87 1022.1
20260831114526 67 124 0.9 2.6 0.00 0.00 0.00 87 1022.2
20260831114026 65 69 0.9 2.6 0.00 0.00 0.00 90 1022.1